CHH3154 ZUCK-ZBAA

Flight info

Callsign CHH3154
Flight time 2h 0m
Altitude 37100
Route OVNUL1Z OVNUL W677 IGIRO/K0830S1190 W4 VADMO W56 LEBUN/K0843S1160 W56 NUDKU/K0833S1190 W56 DUGEB DUGEB5D
Aircraft A20N/M-SDE2E3FGHIRWXY/LB1

Departure

Time 2026-05-07 12:15
Airport Chongqing Jiangbei International Airport (ZUCK)

Arrival

Time 2026-05-07 14:15
Airport Beijing Capital International Airport (ZBAA)
Time Latitude Longitude Altitude Speed Heading
2026-05-07 12:09 29.70445 106.64201 1374 ft 0 kts 293°
2026-05-07 12:12 29.70447 106.64196 1349 ft 2 kts 293°
2026-05-07 12:12 29.70456 106.64169 1372 ft 5 kts 284°
2026-05-07 12:13 29.70467 106.64119 1372 ft 8 kts 284°
2026-05-07 12:13 29.70513 106.64079 1374 ft 10 kts
2026-05-07 12:13 29.70555 106.64090 1371 ft 0 kts 15°
2026-05-07 12:14 29.70677 106.64131 1372 ft 56 kts 18°
2026-05-07 12:14 29.71309 106.64361 1372 ft 131 kts 15°
2026-05-07 12:14 29.72338 106.64728 1677 ft 164 kts 18°
2026-05-07 12:15 29.73444 106.65034 2557 ft 162 kts 16°
2026-05-07 12:15 29.74528 106.65329 3389 ft 159 kts 18°
2026-05-07 12:15 29.75628 106.65714 3812 ft 175 kts 21°
2026-05-07 12:15 29.76848 106.66197 4260 ft 195 kts 21°
2026-05-07 12:16 29.78206 106.66719 4660 ft 220 kts 20°
2026-05-07 12:16 29.79760 106.67282 5162 ft 242 kts 19°
2026-05-07 12:16 29.81450 106.67873 5688 ft 263 kts 18°
2026-05-07 12:16 29.83217 106.68480 6550 ft 267 kts 18°
2026-05-07 12:17 29.85019 106.69097 7401 ft 272 kts 18°
2026-05-07 12:17 29.86824 106.69718 8244 ft 277 kts 18°
2026-05-07 12:17 29.88680 106.70358 9082 ft 281 kts 18°
2026-05-07 12:17 29.90605 106.71023 9593 ft 289 kts 17°
2026-05-07 12:18 29.92507 106.71681 9767 ft 290 kts 17°
2026-05-07 12:18 29.94445 106.72352 9823 ft 290 kts 17°
2026-05-07 12:18 29.96379 106.73023 9819 ft 290 kts 17°
2026-05-07 12:18 29.98311 106.73693 9822 ft 290 kts 17°
2026-05-07 12:19 30.00245 106.74363 9818 ft 289 kts 17°
2026-05-07 12:19 30.02171 106.75032 9818 ft 290 kts 17°
2026-05-07 12:19 30.04103 106.75703 9819 ft 290 kts 17°
2026-05-07 12:19 30.06032 106.76373 9818 ft 289 kts 17°
2026-05-07 12:20 30.07965 106.77044 9918 ft 292 kts 17°
2026-05-07 12:20 30.09936 106.77731 10253 ft 305 kts 17°
2026-05-07 12:20 30.12050 106.78467 10507 ft 329 kts 17°
2026-05-07 12:20 30.14290 106.79248 10980 ft 343 kts 17°
2026-05-07 12:21 30.16597 106.80051 11695 ft 348 kts 17°
2026-05-07 12:21 30.18937 106.80869 12401 ft 354 kts 17°
2026-05-07 12:21 30.21245 106.81934 13101 ft 361 kts 26°
2026-05-07 12:21 30.23489 106.83276 13794 ft 366 kts 27°
2026-05-07 12:22 30.25772 106.84634 14420 ft 371 kts 26°
2026-05-07 12:22 30.28077 106.85999 15104 ft 374 kts 26°
2026-05-07 12:22 30.30407 106.87378 15746 ft 378 kts 26°
2026-05-07 12:22 30.32761 106.88771 16350 ft 382 kts 26°
2026-05-07 12:23 30.35143 106.90183 16941 ft 387 kts 25°
2026-05-07 12:23 30.37555 106.91614 17530 ft 392 kts 25°
2026-05-07 12:23 30.39990 106.93060 18123 ft 396 kts 25°
2026-05-07 12:23 30.42456 106.94526 18607 ft 401 kts 25°
2026-05-07 12:24 30.44947 106.96007 19104 ft 404 kts 25°
2026-05-07 12:24 30.47426 106.97480 19539 ft 408 kts 24°
2026-05-07 12:24 30.49998 106.99011 19737 ft 410 kts 24°
2026-05-07 12:24 30.52539 107.00524 19801 ft 410 kts 24°
2026-05-07 12:25 30.55041 107.02016 19810 ft 410 kts 24°
2026-05-07 12:25 30.57516 107.03664 19807 ft 412 kts 31°
2026-05-07 12:25 30.59853 107.05605 19807 ft 413 kts 33°
2026-05-07 12:25 30.62185 107.07554 19805 ft 412 kts 33°
2026-05-07 12:26 30.64516 107.09496 19810 ft 413 kts 33°
2026-05-07 12:26 30.66856 107.11445 19811 ft 414 kts 33°
2026-05-07 12:26 30.69192 107.13392 19812 ft 414 kts 33°
2026-05-07 12:26 30.71531 107.15344 19809 ft 414 kts 33°
2026-05-07 12:27 30.73868 107.17295 19811 ft 414 kts 33°
2026-05-07 12:27 30.76207 107.19250 19813 ft 414 kts 33°
2026-05-07 12:27 30.78540 107.21201 19814 ft 414 kts 33°
2026-05-07 12:27 30.80877 107.23158 19812 ft 414 kts 33°
2026-05-07 12:28 30.83212 107.25113 19811 ft 413 kts 33°
2026-05-07 12:28 30.85546 107.27069 19810 ft 413 kts 33°
2026-05-07 12:28 30.87877 107.29023 19813 ft 414 kts 33°
2026-05-07 12:28 30.90213 107.30983 19814 ft 413 kts 33°
2026-05-07 12:29 30.92544 107.32941 19813 ft 413 kts 33°
2026-05-07 12:29 30.94874 107.34898 19813 ft 413 kts 33°
2026-05-07 12:29 30.97205 107.36858 19813 ft 413 kts 33°
2026-05-07 12:29 30.99532 107.38815 19817 ft 413 kts 33°
2026-05-07 12:30 31.01863 107.40777 19816 ft 413 kts 33°
2026-05-07 12:30 31.04204 107.42729 19817 ft 412 kts 31°
2026-05-07 12:30 31.06675 107.44412 19823 ft 411 kts 25°
2026-05-07 12:30 31.09180 107.46014 19814 ft 411 kts 26°
2026-05-07 12:31 31.11680 107.47626 19824 ft 410 kts 26°
2026-05-07 12:31 31.14155 107.49224 20030 ft 415 kts 26°
2026-05-07 12:31 31.16717 107.50882 20614 ft 416 kts 25°
2026-05-07 12:31 31.19230 107.52508 21120 ft 420 kts 25°
2026-05-07 12:32 31.21788 107.54163 21632 ft 423 kts 25°
2026-05-07 12:32 31.24378 107.55840 22111 ft 427 kts 25°
2026-05-07 12:32 31.26989 107.57532 22623 ft 430 kts 24°
2026-05-07 12:32 31.29613 107.59233 23096 ft 434 kts 24°
2026-05-07 12:33 31.34932 107.62686 24009 ft 441 kts 24°
2026-05-07 12:33 31.37622 107.64434 24422 ft 443 kts 24°
2026-05-07 12:33 31.40325 107.66193 24810 ft 446 kts 24°
2026-05-07 12:34 31.43050 107.67966 25223 ft 449 kts 24°
2026-05-07 12:34 31.45787 107.69748 25598 ft 452 kts 24°
2026-05-07 12:34 31.48543 107.71543 25984 ft 454 kts 24°
2026-05-07 12:34 31.51309 107.73346 26387 ft 457 kts 24°
2026-05-07 12:35 31.54099 107.75166 26773 ft 460 kts 24°
2026-05-07 12:35 31.56898 107.76993 27136 ft 463 kts 24°
2026-05-07 12:35 31.59718 107.78835 27473 ft 465 kts 24°
2026-05-07 12:35 31.62547 107.80691 27881 ft 466 kts 24°
2026-05-07 12:36 31.65358 107.82604 28272 ft 468 kts 26°
2026-05-07 12:36 31.68172 107.84637 27974 ft 485 kts 28°
2026-05-07 12:36 31.71023 107.86872 27794 ft 500 kts 30°
2026-05-07 12:36 31.73834 107.89314 27952 ft 501 kts 32°
2026-05-07 12:37 31.76590 107.91749 28101 ft 491 kts 33°
2026-05-07 12:37 31.79250 107.94216 28240 ft 483 kts 35°
2026-05-07 12:37 31.84271 107.99390 28230 ft 475 kts 38°
2026-05-07 12:38 31.86636 108.02024 28236 ft 464 kts 40°
2026-05-07 12:38 31.88857 108.04666 28235 ft 455 kts 42°
2026-05-07 12:38 31.92902 108.10278 28228 ft 439 kts 49°
2026-05-07 12:39 31.96827 108.15560 28215 ft 418 kts 30°
2026-05-07 12:39 32.01708 108.19177 28222 ft 426 kts 28°
2026-05-07 12:40 32.04148 108.21255 28335 ft 440 kts 36°
2026-05-07 12:40 32.06384 108.23803 28435 ft 454 kts 44°
2026-05-07 12:40 32.08392 108.26742 28546 ft 467 kts 51°
2026-05-07 12:40 32.10163 108.30010 28632 ft 479 kts 58°
2026-05-07 12:41 32.12880 108.37340 28903 ft 496 kts 70°
2026-05-07 12:41 32.13977 108.41208 29219 ft 499 kts 69°
2026-05-07 12:41 32.15097 108.45091 29476 ft 502 kts 69°
2026-05-07 12:42 32.16223 108.48990 29765 ft 504 kts 69°
2026-05-07 12:42 32.17358 108.52933 30039 ft 508 kts 69°
2026-05-07 12:42 32.18491 108.56883 30321 ft 510 kts 69°
2026-05-07 12:42 32.19660 108.60835 30569 ft 512 kts 65°
2026-05-07 12:43 32.21199 108.64625 30857 ft 510 kts 57°
2026-05-07 12:43 32.23143 108.68120 31130 ft 508 kts 49°
2026-05-07 12:43 32.25445 108.71249 31476 ft 502 kts 40°
2026-05-07 12:43 32.28043 108.73977 31800 ft 497 kts 33°
2026-05-07 12:44 32.30886 108.76265 32071 ft 493 kts 26°
2026-05-07 12:44 32.33824 108.78348 32475 ft 491 kts 26°
2026-05-07 12:44 32.36740 108.80435 32909 ft 489 kts 26°
2026-05-07 12:44 32.39644 108.82518 33237 ft 489 kts 26°
2026-05-07 12:45 32.42554 108.84607 33524 ft 489 kts 26°
2026-05-07 12:45 32.45457 108.86694 33932 ft 486 kts 26°
2026-05-07 12:45 32.48341 108.88769 34305 ft 484 kts 26°
2026-05-07 12:45 32.51208 108.90832 34560 ft 484 kts 25°
2026-05-07 12:46 32.54083 108.92901 34837 ft 482 kts 25°
2026-05-07 12:46 32.56963 108.94974 34988 ft 485 kts 25°
2026-05-07 12:46 32.59850 108.97054 35157 ft 486 kts 25°
2026-05-07 12:46 32.62738 108.99137 35359 ft 487 kts 25°
2026-05-07 12:47 32.65640 109.01232 35544 ft 488 kts 25°
2026-05-07 12:47 32.68538 109.03327 35751 ft 488 kts 24°
2026-05-07 12:47 32.71435 109.05423 35935 ft 488 kts 24°
2026-05-07 12:47 32.74341 109.07527 36120 ft 489 kts 24°
2026-05-07 12:48 32.77203 109.09601 36316 ft 489 kts 24°
2026-05-07 12:48 32.80104 109.11704 36513 ft 489 kts 24°
2026-05-07 12:48 32.83009 109.13812 36716 ft 489 kts 24°
2026-05-07 12:48 32.85913 109.15921 36905 ft 488 kts 23°
2026-05-07 12:49 32.88839 109.18048 37130 ft 487 kts 23°
2026-05-07 12:49 32.91700 109.20129 37243 ft 488 kts 23°
2026-05-07 12:49 32.97499 109.24348 37264 ft 488 kts 23°
2026-05-07 12:50 33.03278 109.28561 37272 ft 486 kts 23°
2026-05-07 12:50 33.09066 109.32790 37272 ft 489 kts 23°
2026-05-07 12:51 33.14863 109.37030 37264 ft 488 kts 23°
2026-05-07 12:51 33.20675 109.41286 37267 ft 489 kts 23°
2026-05-07 12:52 33.26472 109.45543 37289 ft 489 kts 23°
2026-05-07 12:52 33.32225 109.49882 37286 ft 496 kts 29°
2026-05-07 12:53 33.37273 109.55679 37282 ft 513 kts 46°
2026-05-07 12:53 33.40978 109.63091 37288 ft 526 kts 64°
2026-05-07 12:54 33.42904 109.71576 37286 ft 532 kts 82°
2026-05-07 12:54 33.43752 109.80382 37284 ft 533 kts 82°
2026-05-07 12:55 33.44618 109.89198 37284 ft 533 kts 82°
2026-05-07 12:55 33.45470 109.98030 37284 ft 534 kts 82°
2026-05-07 12:56 33.46309 110.06850 37279 ft 534 kts 82°
2026-05-07 12:56 33.47141 110.15679 37281 ft 534 kts 82°
2026-05-07 12:57 33.47969 110.24522 37285 ft 534 kts 82°
2026-05-07 12:57 33.48793 110.33282 37278 ft 533 kts 80°
2026-05-07 12:58 33.50781 110.41772 37278 ft 526 kts 61°
2026-05-07 12:58 33.54612 110.49128 37284 ft 511 kts 42°
2026-05-07 12:59 33.58806 110.53947 37282 ft 495 kts 28°
2026-05-07 12:59 33.65651 110.58625 37284 ft 480 kts 15°
2026-05-07 13:00 33.70659 110.61467 37289 ft 479 kts 16°
2026-05-07 13:00 33.77683 110.65487 37290 ft 481 kts 16°
2026-05-07 13:01 33.82742 110.68395 37294 ft 481 kts 16°
2026-05-07 13:01 33.88782 110.71873 37299 ft 481 kts 16°
2026-05-07 13:02 33.94839 110.75362 37298 ft 482 kts 16°
2026-05-07 13:02 34.01880 110.79428 37299 ft 483 kts 16°
2026-05-07 13:03 34.06916 110.82342 37299 ft 483 kts 16°
2026-05-07 13:03 34.12979 110.85854 37295 ft 484 kts 15°
2026-05-07 13:04 34.19049 110.89376 37301 ft 483 kts 15°
2026-05-07 13:04 34.25113 110.92900 37306 ft 483 kts 16°
2026-05-07 13:05 34.31168 110.96424 37292 ft 483 kts 16°
2026-05-07 13:05 34.37187 111.00080 37294 ft 489 kts 22°
2026-05-07 13:06 34.42692 111.05139 37300 ft 506 kts 36°
2026-05-07 13:06 34.47256 111.11749 37298 ft 519 kts 51°
2026-05-07 13:07 34.51048 111.19209 37284 ft 520 kts 52°
2026-05-07 13:07 34.54838 111.26667 37279 ft 519 kts 53°
2026-05-07 13:08 34.58615 111.34133 37275 ft 518 kts 53°
2026-05-07 13:08 34.62374 111.41589 37269 ft 518 kts 53°
2026-05-07 13:09 34.66131 111.49059 37272 ft 518 kts 53°
2026-05-07 13:09 34.69886 111.56538 37269 ft 518 kts 53°
2026-05-07 13:10 34.73629 111.64014 37265 ft 518 kts 53°
2026-05-07 13:10 34.77370 111.71499 37268 ft 517 kts 53°
2026-05-07 13:11 34.81099 111.78976 37268 ft 517 kts 53°
2026-05-07 13:11 34.84816 111.86447 37269 ft 516 kts 53°
2026-05-07 13:12 34.88547 111.93949 37266 ft 517 kts 53°
2026-05-07 13:12 34.92302 112.01406 37266 ft 517 kts 53°
2026-05-07 13:13 34.96061 112.08876 37266 ft 516 kts 52°
2026-05-07 13:13 34.99798 112.16330 37275 ft 515 kts 52°
2026-05-07 13:14 35.03507 112.23744 37274 ft 516 kts 53°
2026-05-07 13:14 35.07240 112.31225 37278 ft 516 kts 53°
2026-05-07 13:15 35.10965 112.38709 37279 ft 516 kts 53°
2026-05-07 13:15 35.14687 112.46200 37293 ft 516 kts 53°
2026-05-07 13:16 35.18402 112.53695 37282 ft 515 kts 53°
2026-05-07 13:16 35.22118 112.61183 37286 ft 515 kts 52°
2026-05-07 13:17 35.25871 112.68640 37286 ft 515 kts 52°
2026-05-07 13:17 35.29619 112.76103 37296 ft 515 kts 52°
2026-05-07 13:18 35.33366 112.83595 37288 ft 515 kts 52°
2026-05-07 13:18 35.37099 112.91079 37297 ft 515 kts 52°
2026-05-07 13:19 35.40828 112.98570 37300 ft 514 kts 52°
2026-05-07 13:19 35.44555 113.06073 37309 ft 515 kts 53°
2026-05-07 13:20 35.48274 113.13575 37306 ft 515 kts 52°
2026-05-07 13:20 35.51998 113.21101 37313 ft 516 kts 52°
2026-05-07 13:21 35.55712 113.28627 37314 ft 515 kts 52°
2026-05-07 13:21 35.59420 113.36155 37316 ft 515 kts 52°
2026-05-07 13:22 35.63146 113.43680 37317 ft 515 kts 52°
2026-05-07 13:22 35.66941 113.51145 37320 ft 516 kts 51°
2026-05-07 13:23 35.70737 113.58625 37308 ft 516 kts 51°
2026-05-07 13:23 35.74512 113.66119 37319 ft 516 kts 51°
2026-05-07 13:24 35.78291 113.73624 37319 ft 514 kts 52°
2026-05-07 13:24 35.82017 113.81046 37315 ft 513 kts 51°
2026-05-07 13:25 35.85767 113.88531 37308 ft 513 kts 51°
2026-05-07 13:25 35.89507 113.96015 37299 ft 513 kts 51°
2026-05-07 13:26 35.93251 114.03521 37301 ft 513 kts 51°
2026-05-07 13:26 35.96978 114.11014 37306 ft 513 kts 51°
2026-05-07 13:27 36.00707 114.18525 37300 ft 513 kts 51°
2026-05-07 13:27 36.04428 114.26036 37305 ft 513 kts 51°
2026-05-07 13:28 36.08148 114.33562 37301 ft 513 kts 51°
2026-05-07 13:28 36.11863 114.41095 37301 ft 513 kts 51°
2026-05-07 13:29 36.15575 114.48639 37297 ft 514 kts 51°
2026-05-07 13:29 36.19287 114.56198 37293 ft 514 kts 51°
2026-05-07 13:30 36.22995 114.63767 37296 ft 515 kts 51°
2026-05-07 13:30 36.25029 114.67362 37287 ft 503 kts 40°
2026-05-07 13:30 36.27493 114.70336 37294 ft 487 kts 27°
2026-05-07 13:31 36.30278 114.72580 37279 ft 469 kts 15°
2026-05-07 13:31 36.33239 114.74089 37279 ft 453 kts
2026-05-07 13:31 36.36256 114.74911 37272 ft 437 kts 355°
2026-05-07 13:31 36.39266 114.75300 37272 ft 440 kts 359°
2026-05-07 13:32 36.42272 114.76332 37276 ft 459 kts 11°
2026-05-07 13:32 36.45172 114.78164 37277 ft 475 kts 20°
2026-05-07 13:32 36.50834 114.82412 37279 ft 473 kts 18°
2026-05-07 13:33 36.56647 114.86130 37288 ft 468 kts 14°
2026-05-07 13:33 36.62525 114.89574 37292 ft 467 kts 13°
2026-05-07 13:34 36.71324 114.94681 37283 ft 464 kts 13°
2026-05-07 13:35 36.77180 114.98092 37281 ft 464 kts 13°
2026-05-07 13:35 36.83025 115.01506 37277 ft 463 kts 13°
2026-05-07 13:36 36.88856 115.04918 37274 ft 463 kts 13°
2026-05-07 13:36 36.94687 115.08335 37277 ft 463 kts 12°
2026-05-07 13:37 37.00473 115.11732 37279 ft 462 kts 12°
2026-05-07 13:37 37.06333 115.15178 37276 ft 462 kts 12°
2026-05-07 13:38 37.12149 115.18605 37273 ft 462 kts 12°
2026-05-07 13:38 37.17959 115.22033 37275 ft 461 kts 12°
2026-05-07 13:39 37.23766 115.25465 37276 ft 461 kts 12°
2026-05-07 13:39 37.29526 115.28875 37265 ft 460 kts 12°
2026-05-07 13:40 37.35317 115.32310 37265 ft 460 kts 11°
2026-05-07 13:40 37.41101 115.35746 37259 ft 459 kts 11°
2026-05-07 13:40 37.43992 115.37465 37116 ft 460 kts 11°
2026-05-07 13:41 37.46924 115.39209 36858 ft 460 kts 11°
2026-05-07 13:41 37.49818 115.40933 36610 ft 461 kts 11°
2026-05-07 13:41 37.52727 115.42666 36366 ft 463 kts 11°
2026-05-07 13:41 37.55635 115.44401 36126 ft 464 kts 11°
2026-05-07 13:42 37.58559 115.46149 35883 ft 464 kts 11°
2026-05-07 13:42 37.61443 115.47873 35647 ft 465 kts 11°
2026-05-07 13:42 37.64407 115.49648 35408 ft 466 kts 11°
2026-05-07 13:42 37.67342 115.51406 35184 ft 467 kts 11°
2026-05-07 13:43 37.70237 115.53143 34951 ft 467 kts 11°
2026-05-07 13:43 37.73217 115.54933 34720 ft 468 kts 11°
2026-05-07 13:43 37.76165 115.56679 34489 ft 464 kts
2026-05-07 13:43 37.79112 115.57915 34268 ft 443 kts 357°
2026-05-07 13:44 37.82081 115.58517 34025 ft 423 kts 348°
2026-05-07 13:44 37.84961 115.58540 33773 ft 406 kts 341°
2026-05-07 13:44 37.87815 115.58310 33511 ft 406 kts 342°
2026-05-07 13:44 37.90607 115.58097 33261 ft 407 kts 342°
2026-05-07 13:45 37.93432 115.57886 33011 ft 407 kts 342°
2026-05-07 13:45 37.96260 115.57675 32763 ft 408 kts 343°
2026-05-07 13:45 37.99096 115.57464 32512 ft 408 kts 343°
2026-05-07 13:45 38.01934 115.57252 32264 ft 409 kts 343°
2026-05-07 13:46 38.03855 115.57108 32089 ft 410 kts 343°
2026-05-07 13:46 38.07634 115.56822 31495 ft 412 kts 345°
2026-05-07 13:46 38.10499 115.56638 30981 ft 414 kts 346°
2026-05-07 13:46 38.13384 115.56503 30394 ft 414 kts 347°
2026-05-07 13:47 38.16254 115.56323 29733 ft 411 kts 347°
2026-05-07 13:47 38.18169 115.56190 29268 ft 407 kts 347°
2026-05-07 13:47 38.20984 115.55987 28592 ft 403 kts 347°
2026-05-07 13:47 38.23779 115.55878 27929 ft 404 kts 353°
2026-05-07 13:48 38.26586 115.56283 27284 ft 409 kts
2026-05-07 13:48 38.29304 115.57236 26664 ft 414 kts 11°
2026-05-07 13:48 38.31940 115.58731 26053 ft 416 kts 17°
2026-05-07 13:48 38.34518 115.60366 25508 ft 409 kts 17°
2026-05-07 13:49 38.37042 115.61955 25046 ft 401 kts 17°
2026-05-07 13:49 38.39521 115.63513 24579 ft 393 kts 17°
2026-05-07 13:49 38.41952 115.65042 24118 ft 386 kts 18°
2026-05-07 13:49 38.44332 115.66540 23654 ft 378 kts 18°
2026-05-07 13:50 38.46666 115.68009 23111 ft 372 kts 18°
2026-05-07 13:50 38.48972 115.69464 22568 ft 365 kts 18°
2026-05-07 13:50 38.51233 115.70889 22040 ft 361 kts 18°
2026-05-07 13:50 38.53482 115.72305 21519 ft 361 kts 19°
2026-05-07 13:51 38.55735 115.73725 21010 ft 360 kts 19°
2026-05-07 13:51 38.57975 115.75140 20503 ft 357 kts 19°
2026-05-07 13:51 38.60196 115.76546 20020 ft 356 kts 20°
2026-05-07 13:51 38.62413 115.77950 19526 ft 355 kts 20°
2026-05-07 13:52 38.64615 115.79353 19052 ft 354 kts 22°
2026-05-07 13:52 38.66724 115.81006 18578 ft 357 kts 30°
2026-05-07 13:52 38.68672 115.82991 18070 ft 359 kts 34°
2026-05-07 13:52 38.70565 115.85046 17532 ft 355 kts 34°
2026-05-07 13:53 38.72447 115.87070 16997 ft 352 kts 34°
2026-05-07 13:53 38.74321 115.89081 16488 ft 350 kts 34°
2026-05-07 13:53 38.76175 115.91073 16013 ft 345 kts 35°
2026-05-07 13:53 38.78003 115.93042 15855 ft 345 kts 35°
2026-05-07 13:54 38.79848 115.95027 15819 ft 347 kts 35°
2026-05-07 13:54 38.81696 115.97020 15818 ft 347 kts 35°
2026-05-07 13:54 38.83541 115.99014 15819 ft 347 kts 35°
2026-05-07 13:54 38.85388 116.01012 15818 ft 347 kts 35°
2026-05-07 13:55 38.87233 116.03010 15817 ft 347 kts 35°
2026-05-07 13:55 38.89074 116.05004 15818 ft 347 kts 35°
2026-05-07 13:55 38.90920 116.07005 15817 ft 347 kts 35°
2026-05-07 13:55 38.92764 116.09005 15817 ft 347 kts 35°
2026-05-07 13:56 38.94604 116.11001 15814 ft 347 kts 35°
2026-05-07 13:56 38.96448 116.13003 15813 ft 347 kts 35°
2026-05-07 13:56 38.98288 116.15002 15814 ft 347 kts 35°
2026-05-07 13:56 39.00132 116.17006 15811 ft 347 kts 35°
2026-05-07 13:57 39.02102 116.18717 15807 ft 340 kts 20°
2026-05-07 13:57 39.04342 116.19546 15813 ft 333 kts
2026-05-07 13:57 39.06608 116.19476 15811 ft 330 kts 352°
2026-05-07 13:57 39.08891 116.19126 15641 ft 331 kts 352°
2026-05-07 13:58 39.11167 116.18778 15396 ft 329 kts 352°
2026-05-07 13:58 39.13439 116.18432 15149 ft 328 kts 352°
2026-05-07 13:58 39.15622 116.18101 14915 ft 327 kts 352°
2026-05-07 13:58 39.17882 116.17760 14668 ft 326 kts 352°
2026-05-07 13:59 39.20136 116.17419 14427 ft 326 kts 352°
2026-05-07 13:59 39.22382 116.17080 14189 ft 325 kts 352°
2026-05-07 13:59 39.24628 116.16740 13949 ft 324 kts 352°
2026-05-07 13:59 39.26868 116.16401 13686 ft 324 kts 352°
2026-05-07 14:00 39.29105 116.16062 13420 ft 323 kts 352°
2026-05-07 14:00 39.31332 116.15725 13155 ft 322 kts 352°
2026-05-07 14:00 39.33558 116.15387 12891 ft 322 kts 352°
2026-05-07 14:00 39.35778 116.15051 12635 ft 321 kts 352°
2026-05-07 14:01 39.37990 116.14716 12374 ft 320 kts 352°
2026-05-07 14:01 39.40210 116.14571 12107 ft 321 kts
2026-05-07 14:01 39.42349 116.15380 11859 ft 325 kts 25°
2026-05-07 14:01 39.44147 116.17175 11610 ft 331 kts 45°
2026-05-07 14:02 39.45322 116.19751 11364 ft 339 kts 67°
2026-05-07 14:02 39.45764 116.22751 11205 ft 339 kts 79°
2026-05-07 14:02 39.46037 116.25728 11092 ft 327 kts 79°
2026-05-07 14:02 39.46296 116.28590 10979 ft 314 kts 79°
2026-05-07 14:03 39.46549 116.31341 10815 ft 302 kts 79°
2026-05-07 14:03 39.46801 116.34012 10486 ft 298 kts 79°
2026-05-07 14:03 39.47052 116.36641 10285 ft 290 kts 79°
2026-05-07 14:03 39.47303 116.39248 10095 ft 293 kts 79°
2026-05-07 14:04 39.47554 116.41866 9898 ft 292 kts 79°
2026-05-07 14:04 39.47989 116.44391 9668 ft 284 kts 61°
2026-05-07 14:04 39.49110 116.46430 9476 ft 277 kts 38°
2026-05-07 14:04 39.50640 116.47927 9283 ft 275 kts 32°
2026-05-07 14:05 39.52185 116.49383 9099 ft 274 kts 33°
2026-05-07 14:05 39.53722 116.50838 8909 ft 274 kts 33°
2026-05-07 14:05 39.55258 116.52297 8717 ft 273 kts 33°
2026-05-07 14:05 39.56788 116.53754 8526 ft 273 kts 33°
2026-05-07 14:06 39.58321 116.55216 8336 ft 273 kts 33°
2026-05-07 14:06 39.59850 116.56676 8149 ft 273 kts 33°
2026-05-07 14:06 39.61376 116.58135 7950 ft 273 kts 33°
2026-05-07 14:06 39.62904 116.59594 7606 ft 272 kts 33°
2026-05-07 14:07 39.64424 116.61048 7239 ft 270 kts 33°
2026-05-07 14:07 39.65939 116.62480 6879 ft 268 kts 30°
2026-05-07 14:07 39.67652 116.63369 6497 ft 265 kts
2026-05-07 14:07 39.69475 116.63348 6144 ft 261 kts 352°
2026-05-07 14:08 39.71265 116.63058 5797 ft 260 kts 352°
2026-05-07 14:08 39.73068 116.62773 5436 ft 260 kts 352°
2026-05-07 14:08 39.74859 116.62494 5096 ft 258 kts 352°
2026-05-07 14:08 39.76626 116.62223 4907 ft 255 kts 352°
2026-05-07 14:09 39.78409 116.61949 4886 ft 258 kts 352°
2026-05-07 14:09 39.80182 116.61677 4875 ft 256 kts 352°
2026-05-07 14:09 39.81948 116.61406 4663 ft 255 kts 352°
2026-05-07 14:09 39.83709 116.61135 4310 ft 255 kts 352°
2026-05-07 14:10 39.85467 116.60862 3931 ft 254 kts 352°
2026-05-07 14:10 39.87181 116.60594 3727 ft 246 kts 352°
2026-05-07 14:10 39.88861 116.60330 3623 ft 235 kts 353°
2026-05-07 14:10 39.90422 116.60084 3539 ft 224 kts 352°
2026-05-07 14:11 39.91932 116.59846 3433 ft 214 kts 353°
2026-05-07 14:11 39.93380 116.59617 3312 ft 204 kts 353°
2026-05-07 14:11 39.94757 116.59403 3215 ft 193 kts 353°
2026-05-07 14:11 39.96025 116.59206 3200 ft 173 kts 353°
2026-05-07 14:12 39.97176 116.59026 2909 ft 163 kts 353°
2026-05-07 14:12 39.98279 116.58853 2541 ft 158 kts 352°
2026-05-07 14:12 39.99375 116.58680 2070 ft 160 kts 352°
2026-05-07 14:12 40.00489 116.58504 1587 ft 161 kts 352°
2026-05-07 14:13 40.01579 116.58331 1157 ft 154 kts 352°
2026-05-07 14:13 40.02587 116.58172 987 ft 136 kts 352°
2026-05-07 14:13 40.03502 116.58027 1015 ft 136 kts 352°
2026-05-07 14:13 40.04433 116.57879 1001 ft 133 kts 352°
2026-05-07 14:14 40.05357 116.57731 879 ft 134 kts 352°
2026-05-07 14:14 40.06281 116.57578 635 ft 133 kts 352°
2026-05-07 14:14 40.07203 116.57423 321 ft 132 kts 353°
2026-05-07 14:14 40.08093 116.57297 117 ft 124 kts 355°
2026-05-07 14:15 40.08735 116.57210 108 ft 50 kts 354°
2026-05-07 14:15 40.08895 116.57187 108 ft 18 kts 354°
2026-05-07 14:15 40.09049 116.57155 109 ft 26 kts 354°
2026-05-07 14:15 40.09254 116.57189 111 ft 32 kts 18°
2026-05-07 14:16 40.09307 116.57224 110 ft 0 kts 25°
2026-05-07 14:16 40.09308 116.57224 110 ft 1 kts 25°
2026-05-07 14:17 40.09336 116.57258 111 ft 10 kts 65°
2026-05-07 14:17 40.09291 116.57326 111 ft 14 kts 177°
2026-05-07 14:17 40.09187 116.57354 110 ft 18 kts 182°
2026-05-07 14:17 40.09044 116.57371 110 ft 23 kts 172°
2026-05-07 14:18 40.08885 116.57398 108 ft 23 kts 172°
2026-05-07 14:18 40.08715 116.57425 110 ft 26 kts 174°
2026-05-07 14:18 40.08532 116.57449 110 ft 27 kts 174°
2026-05-07 14:18 40.08342 116.57484 110 ft 28 kts 166°
2026-05-07 14:19 40.08299 116.57598 110 ft 11 kts 81°
2026-05-07 14:19 40.08312 116.57712 110 ft 14 kts 82°
2026-05-07 14:19 40.08327 116.57849 109 ft 17 kts 82°
2026-05-07 14:19 40.08343 116.58011 110 ft 19 kts 88°
2026-05-07 14:20 40.08326 116.58152 110 ft 14 kts 135°
2026-05-07 14:20 40.08261 116.58220 110 ft 2 kts 82°
2026-05-07 14:20 40.08261 116.58221 110 ft 0 kts 77°
2026-05-07 14:21 40.08263 116.58237 110 ft 4 kts 82°
2026-05-07 14:21 40.08243 116.58264 109 ft 5 kts 176°
2026-05-07 14:21 40.08193 116.58265 110 ft 9 kts 174°
2026-05-07 14:21 40.08154 116.58270 110 ft 0 kts 174°